[[{"header":{"parameterUnit":"m.s-1","parameterCategory":1,"la1":30.2991,"la2":30.254,"lo1":-89.0895,"lo2":-89.0444,"dy":0.0017,"dx":0.0017,"nx":28,"ny":28,"refTime":"2023-07-22T21:00:00:Z","depth":0,"parameterNumber":2,"parameterNumberName":"U-component_of_WINDS"},"data":[0,0,0,0,0,0,0,0,0,0,0,0,0,0,0,0,0,0,0,0,0,0,0,0,0,0,0,0,0,0,0,0,0,0,0,0,0,0,0,0,0,0,0,0,0,0,0,0,0,0,0,0,0,0,0,0,0,0,1.9117,1.9118,0,1.9228,1.923,1.9231,1.9269,1.9268,1.9268,1.9267,1.9377,1.938,1.9383,0,0,0,0,0,0,0,0,0,0,0,0,0,1.8932,1.8935,1.9117,1.9119,1.912,1.9228,1.923,1.9231,1.9269,1.9268,1.9268,1.9267,1.9376,1.938,1.9384,0,0,0,0,0,0,0,0,0,0,0,0,0,1.9025,1.8936,1.9117,1.9152,1.9156,1.9228,1.923,1.9232,1.9269,1.9268,1.9268,1.9267,1.9374,1.9379,1.9384,1.9428,0,0,1.9399,1.9401,0,0,0,0,0,0,0,0,1.9019,1.9031,1.9145,1.915,1.9154,1.9234,1.9205,1.9297,1.9269,1.9226,1.9267,1.9267,1.933,1.9338,1.936,1.9433,1.9438,1.94,1.9403,1.9405,1.9406,0,0,0,0,0,0,0,1.9013,1.9027,1.9161,1.9147,1.9152,1.916,1.9173,1.9222,1.928,1.923,1.9233,1.9246,1.9332,1.9355,1.9363,1.9439,1.94,1.9404,1.9407,1.9409,1.9552,1.9553,0,0,0,0,0,0,1.9001,1.9021,1.9158,1.9164,1.9084,1.9164,1.9178,1.9209,1.9279,1.929,1.9246,1.9247,1.9347,1.9357,1.9367,1.9422,1.9405,1.9409,1.9412,1.9551,1.9552,1.9553,0,0,0,0,0,0,1.8997,1.9013,1.9153,1.9094,1.9112,1.9168,1.9203,1.9212,1.9235,1.9292,1.9302,1.926,1.9347,1.936,1.9413,1.9427,1.9412,1.9416,1.955,1.9552,1.9553,1.9534,0,0,0,0,0,0,1.8992,1.9011,1.903,1.9094,1.9115,1.9198,1.9204,1.9214,1.9244,1.9247,1.9308,1.9317,1.9348,1.9405,1.9417,1.9433,1.942,1.9549,1.9551,1.9553,1.9533,1.9534,1.9535,0,0,0,0,0,1.8985,1.9019,1.9031,1.9047,1.914,1.9199,1.9211,1.9247,1.9245,1.9264,1.93,1.9315,1.9423,1.941,1.9424,1.9442,1.9549,1.9551,1.9552,1.9533,1.9534,1.9535,0,0,0,0,0,0,1.8954,1.9028,1.9042,1.9098,1.9142,1.9205,1.9229,1.9247,1.9291,1.9291,1.9332,1.9345,1.9394,1.9424,1.9407,1.9487,1.9487,1.9491,1.9467,1.9468,1.9469,1.946,1.9424,0,0,0,0,0,1.8954,1.8997,1.9059,1.9103,1.9124,1.9173,1.92,1.9224,1.927,1.9289,1.9329,1.9372,1.9416,1.9444,1.9487,1.9538,1.9551,1.9557,1.9557,1.9558,1.9561,1.9589,1.9592,1.9559,1.9559,1.9559,0,0,1.8953,1.8999,1.9024,1.9098,1.9135,1.9177,1.9188,1.9233,1.9264,1.9295,1.9347,1.9378,1.9429,1.948,1.9505,1.9506,1.9573,1.956,1.956,1.9563,1.9591,1.9594,1.9597,1.9561,1.956,1.956,0,0,1.8975,1.9015,1.9055,1.9092,1.9148,1.918,1.919,1.925,1.9272,1.9326,1.935,1.9387,1.9461,1.9497,1.9524,1.9558,1.9573,1.9571,1.9574,1.9601,1.9604,1.9606,1.9617,1.9621,1.9574,1.9574,1.9574,0,1.8967,1.9034,1.9073,1.9117,1.9148,1.9179,1.9219,1.9252,1.9319,1.9339,1.9339,1.9434,1.947,1.953,1.9538,1.956,1.9571,1.9564,1.96,1.9603,1.9606,1.9617,1.9621,1.9573,1.9573,1.9574,1.9574,0,1.9021,1.9066,1.9092,1.9157,1.9191,1.9232,1.9276,1.9306,1.9326,1.9358,1.9411,1.9456,1.9508,1.9524,1.9544,1.9586,1.9585,1.9593,1.9592,1.9608,1.9619,1.9623,1.9572,1.9573,1.9573,1.9573,0,0,1.9025,1.9112,1.9121,1.915,1.9214,1.925,1.9292,1.9345,1.9368,1.9413,1.9448,1.9511,1.9518,1.9549,1.9573,1.9597,1.9619,1.9601,1.9603,1.9602,1.9667,1.9661,1.9665,1.963,1.9631,1.9632,1.9663,0,1.9054,1.9133,1.9169,1.9231,1.9273,1.9303,1.9339,1.9382,1.9412,1.945,1.9483,1.9526,1.9533,1.9552,1.9576,1.9611,1.9633,1.961,1.9662,1.9663,1.9648,1.9671,1.9665,1.9692,1.9667,1.9668,1.9669,0,1.9099,1.9145,1.9211,1.927,1.9289,1.9321,1.9372,1.9409,1.9457,1.9477,1.9512,1.9535,1.9579,1.9576,1.9636,1.962,1.9643,1.9663,1.9665,1.9671,1.9667,1.9677,1.9702,1.9705,1.9676,1.9675,1.9675,0,1.9094,1.9173,1.9223,1.9247,1.9317,1.9339,1.9369,1.9416,1.9445,1.9489,1.9508,1.9556,1.9582,1.9618,1.9653,1.9648,1.9709,1.971,1.9726,1.9725,1.9737,1.9736,1.9765,1.9753,1.9753,1.9753,1.9753,0,1.9123,1.9162,1.9222,1.9252,1.9296,1.9337,1.9379,1.9411,1.9452,1.9488,1.9517,1.9549,1.9594,1.9632,1.9659,1.9704,1.9716,1.9732,1.9739,1.9729,1.9727,1.9745,1.9743,1.9754,1.9754,1.9754,1.9753,0,1.9125,1.9167,1.9223,1.9285,1.9301,1.9331,1.9383,1.9413,1.9444,1.9489,1.9502,1.9551,1.9597,1.9636,1.9696,1.9714,1.976,1.9769,1.9745,1.9748,1.9762,1.976,1.9803,1.981,1.9794,1.9794,1.9794,0,1.914,1.9171,1.9237,1.9264,1.9293,1.9336,1.9366,1.9407,1.9437,1.9493,1.9516,1.9564,1.9605,1.9677,1.9717,1.9762,1.9771,1.9784,1.9778,1.9768,1.9771,1.9768,1.9771,1.9783,1.9783,1.9783,1.9783,0,1.9162,1.9181,1.9225,1.9276,1.9311,1.9353,1.9395,1.9414,1.9462,1.9494,1.9542,1.9574,1.9636,1.9683,1.9733,1.9762,1.978,1.9785,1.9791,1.9781,1.9766,1.9774,1.9745,1.9783,1.9783,1.9783,1.9783,1.9783,1.9171,1.92,1.925,1.9297,1.9334,1.9372,1.9403,1.9439,1.948,1.9535,1.9555,1.9604,1.965,1.972,1.9748,1.9786,1.9789,1.9797,1.98,1.9801,1.9799,1.976,1.9795,1.9795,1.9795,1.9795,1.9796,0,1.9194,1.9228,1.9271,1.933,1.9366,1.9382,1.9429,1.9458,1.9501,1.9543,1.9583,1.9637,1.9683,1.9727,1.9774,1.9796,1.9805,1.9807,1.9805,1.9811,1.9795,1.9785,1.9798,1.9798,1.9798,1.9798,1.9798,1.9798,1.921,1.9259,1.9284,1.9351,1.9384,1.9433,1.9459,1.9494,1.9528,1.9588,1.9626,1.9655,1.9697,1.9748,1.979,1.9801,1.9817,1.9816,1.983,1.9813,1.9813,1.9812,1.9802,1.982,1.982,1.9843,1.9843,1.9844]},{"header":{"parameterUnit":"m.s-1","parameterCategory":1,"la1":30.2991,"la2":30.254,"lo1":-89.0895,"lo2":-89.0444,"dy":0.0017,"dx":0.0017,"nx":28,"ny":28,"refTime":"2023-07-22T21:00:00:Z","depth":0,"parameterNumber":3,"parameterNumberName":"V-component_of_WINDS"},"data":[0,0,0,0,0,0,0,0,0,0,0,0,0,0,0,0,0,0,0,0,0,0,0,0,0,0,0,0,0,0,0,0,0,0,0,0,0,0,0,0,0,0,0,0,0,0,0,0,0,0,0,0,0,0,0,0,0,0,0.5774,0.5774,0,0.5756,0.5756,0.5755,0.5709,0.5708,0.5707,0.5706,0.569,0.5691,0.5691,0,0,0,0,0,0,0,0,0,0,0,0,0,0.577,0.577,0.5774,0.5774,0.5773,0.5756,0.5755,0.5755,0.5709,0.5708,0.5707,0.5706,0.569,0.5691,0.5691,0,0,0,0,0,0,0,0,0,0,0,0,0,0.5764,0.577,0.5774,0.5748,0.5746,0.5756,0.5755,0.5755,0.571,0.5708,0.5707,0.5705,0.569,0.5691,0.5691,0.5725,0,0,0.5694,0.5694,0,0,0,0,0,0,0,0,0.5764,0.5764,0.5752,0.575,0.5747,0.5733,0.5748,0.5745,0.571,0.5723,0.5706,0.5705,0.5706,0.5705,0.5705,0.5725,0.5724,0.5694,0.5694,0.5694,0.5695,0,0,0,0,0,0,0,0.5765,0.5764,0.5767,0.5752,0.5749,0.5738,0.5736,0.5747,0.5723,0.5722,0.5719,0.5717,0.5704,0.5705,0.5704,0.5724,0.5694,0.5694,0.5695,0.5695,0.5769,0.577,0,0,0,0,0,0,0.5768,0.5765,0.5767,0.5766,0.5752,0.5739,0.5737,0.5739,0.5723,0.5719,0.5718,0.5715,0.5704,0.5704,0.5704,0.5741,0.5694,0.5695,0.5696,0.5767,0.5769,0.5771,0,0,0,0,0,0,0.5768,0.5769,0.5768,0.5765,0.5764,0.5741,0.5744,0.574,0.574,0.572,0.5716,0.5723,0.5703,0.5703,0.572,0.574,0.5695,0.5696,0.5765,0.5768,0.577,0.5817,0,0,0,0,0,0,0.5769,0.5769,0.5782,0.5765,0.5764,0.5784,0.5746,0.574,0.5741,0.5736,0.5723,0.572,0.5702,0.5719,0.5721,0.574,0.5697,0.5763,0.5766,0.5769,0.5814,0.5821,0.5827,0,0,0,0,0,0.5769,0.5797,0.5783,0.5783,0.5779,0.5785,0.5785,0.5763,0.5743,0.5755,0.5742,0.572,0.5738,0.5721,0.5722,0.5743,0.5762,0.5765,0.5769,0.5811,0.582,0.5827,0,0,0,0,0,0,0.5818,0.5794,0.5778,0.5802,0.5796,0.5778,0.5793,0.5773,0.5773,0.5769,0.5742,0.574,0.576,0.5753,0.5735,0.5774,0.5746,0.575,0.5778,0.5786,0.5792,0.5793,0.5697,0,0,0,0,0,0.5831,0.5838,0.5817,0.584,0.5838,0.5816,0.5818,0.5801,0.5794,0.5792,0.578,0.5775,0.5778,0.5782,0.5785,0.5813,0.5809,0.5827,0.5834,0.5839,0.5843,0.5856,0.5864,0.5782,0.5782,0.5782,0,0,0.586,0.5848,0.5854,0.585,0.5843,0.5851,0.5814,0.5824,0.5829,0.5793,0.5808,0.58,0.5792,0.5814,0.5823,0.5809,0.5865,0.5844,0.5848,0.5849,0.586,0.5868,0.5875,0.5784,0.5784,0.5783,0,0,0.5915,0.5907,0.5924,0.5918,0.5907,0.5892,0.5897,0.5881,0.5873,0.5887,0.586,0.5866,0.5874,0.5869,0.5868,0.5919,0.5898,0.5921,0.5955,0.5968,0.5975,0.598,0.5998,0.6004,0.5925,0.5925,0.5925,0,0.5952,0.5961,0.5936,0.5947,0.5946,0.5912,0.5929,0.5925,0.5916,0.5916,0.59,0.5908,0.59,0.592,0.5933,0.5933,0.5937,0.5922,0.5976,0.5981,0.5986,0.6002,0.6009,0.5927,0.5927,0.5927,0.5927,0,0.6006,0.6013,0.6029,0.602,0.602,0.6035,0.6011,0.6015,0.5998,0.5985,0.5999,0.5989,0.5988,0.5992,0.5976,0.6009,0.6,0.5981,0.5952,0.5997,0.6012,0.6018,0.5931,0.593,0.593,0.5929,0,0,0.6093,0.6068,0.6074,0.6069,0.6054,0.606,0.6072,0.607,0.6073,0.6069,0.6078,0.6085,0.6065,0.6064,0.6047,0.6059,0.6099,0.6037,0.6036,0.6048,0.6133,0.6148,0.6156,0.6085,0.6086,0.6087,0.6134,0,0.6144,0.6162,0.6139,0.6163,0.6169,0.6136,0.6147,0.6139,0.6127,0.613,0.6117,0.6122,0.6097,0.6095,0.6105,0.6092,0.6115,0.6088,0.6093,0.6094,0.6096,0.6164,0.6179,0.6224,0.614,0.6141,0.6141,0,0.6206,0.6202,0.6226,0.6208,0.621,0.622,0.6215,0.6219,0.6209,0.62,0.6197,0.6176,0.6187,0.6159,0.6174,0.6156,0.6156,0.615,0.6151,0.6151,0.612,0.6164,0.6238,0.6244,0.615,0.615,0.6149,0,0.6265,0.6266,0.628,0.6277,0.6257,0.6265,0.6257,0.6246,0.6245,0.6242,0.6241,0.624,0.6239,0.6238,0.6218,0.62,0.6234,0.6205,0.6226,0.6227,0.6235,0.6235,0.6309,0.6237,0.6237,0.6237,0.6236,0,0.6324,0.634,0.6306,0.6315,0.6332,0.6305,0.6322,0.6311,0.6301,0.6307,0.628,0.6286,0.6258,0.6262,0.6246,0.626,0.626,0.6252,0.6248,0.6254,0.6255,0.6254,0.625,0.6238,0.6238,0.6238,0.6237,0,0.6393,0.6372,0.6384,0.6364,0.6359,0.6372,0.6354,0.6361,0.6347,0.6355,0.6355,0.6332,0.6335,0.6314,0.6313,0.6302,0.6323,0.6314,0.6326,0.6323,0.6345,0.6343,0.6421,0.643,0.6353,0.6353,0.6354,0,0.6432,0.6443,0.6423,0.6424,0.6417,0.642,0.6419,0.6393,0.6394,0.6383,0.6391,0.6391,0.6389,0.6395,0.6379,0.6378,0.6367,0.6395,0.6367,0.6373,0.6367,0.6366,0.6367,0.6401,0.6402,0.6403,0.6403,0,0.6503,0.6491,0.649,0.6485,0.6484,0.648,0.6473,0.6476,0.6448,0.645,0.6451,0.645,0.6448,0.6448,0.6443,0.6436,0.6415,0.6412,0.6417,0.6423,0.6429,0.6425,0.6341,0.641,0.641,0.6409,0.6409,0.6408,0.6557,0.6565,0.6551,0.6551,0.6543,0.6537,0.6542,0.6527,0.6528,0.6523,0.6508,0.6512,0.6501,0.6492,0.6487,0.6489,0.6476,0.6483,0.6485,0.6487,0.649,0.6429,0.6489,0.6488,0.6488,0.6488,0.6488,0,0.6625,0.6615,0.6614,0.6605,0.6605,0.6584,0.6575,0.6577,0.658,0.6571,0.6569,0.6571,0.657,0.6553,0.6551,0.6557,0.6547,0.6557,0.6556,0.6554,0.6503,0.6499,0.6565,0.6565,0.6565,0.6565,0.6565,0.6565,0.6661,0.6672,0.6658,0.6665,0.6654,0.6657,0.6654,0.6648,0.6641,0.6643,0.6642,0.663,0.6618,0.6614,0.6613,0.6608,0.6608,0.6621,0.6613,0.6565,0.6558,0.6551,0.6547,0.6622,0.6622,0.6664,0.6664,0.6665]}]]